Location: Oshawa
(43.9000°N, 78.8670°W)
Time: 12:54:02
(UTC-05:00)

Transit 2A Rocket - Visible Passes

Search period start: 09 February 2016 00:00
Search period end: 19 February 2016 00:00
Orbit: 592 x 913 km, 66.7° (Epoch: 08 February)

Date Brightness Start Highest point End Pass type
(mag) Time Alt. Az. Time Alt. Az. Time Alt. Az.
09 Feb 7.0 05:38:12 10° N 05:42:24 25° NE 05:46:52 10° E visible
10 Feb 7.4 04:56:29 10° N 04:59:48 17° NE 05:03:17 10° E visible
10 Feb 5.2 06:37:53 10° NNW 06:43:07 82° ENE 06:48:50 10° SSE visible
11 Feb 7.7 04:15:14 10° NNE 04:17:05 12° NNE 04:19:00 10° NE visible
11 Feb 5.9 05:55:45 10° NNW 06:00:48 51° NE 06:06:18 10° SE visible
12 Feb 6.6 05:13:44 10° NNW 05:18:24 33° NE 05:23:25 10° ESE visible
13 Feb 7.2 04:32:39 13° N 04:35:53 22° NE 04:40:08 10° E visible
13 Feb 5.1 06:13:41 10° NW 06:18:57 73° WSW 06:24:39 10° SSE visible
14 Feb 7.5 03:51:48 14° NNE 03:53:14 15° NE 03:56:24 10° ENE visible
14 Feb 5.3 05:31:45 12° NNW 05:36:41 71° ENE 05:42:24 10° SE visible
15 Feb 8.0 03:11:03 11° NE 03:11:03 11° NE 03:11:42 10° NE visible
15 Feb 6.1 04:51:00 20° NNW 04:54:20 44° NE 04:59:46 10° SE visible
15 Feb 5.9 06:32:10 10° NW 06:36:50 31° WSW 06:41:50 10° S visible
16 Feb 6.8 04:10:23 25° NNE 04:11:54 29° NE 04:16:45 10° ESE visible
16 Feb 5.3 05:50:20 14° NW 05:54:43 51° WSW 06:00:18 10° S visible
16 Feb 7.0 20:26:12 10° SSW 20:26:41 13° SSW 20:26:41 13° SSW visible
17 Feb 7.4 03:29:54 20° NE 03:29:54 20° NE 03:33:21 10° E visible
17 Feb 5.0 05:09:52 32° NW 05:12:31 84° WSW 05:18:18 10° SSE visible
17 Feb 5.3 19:44:10 10° SSW 19:47:01 37° SSE 19:47:01 37° SSE visible
18 Feb 5.5 04:29:35 57° NNE 04:30:14 62° NE 04:35:55 10° SE visible
18 Feb 6.3 06:09:34 15° WNW 06:12:30 22° WSW 06:16:50 10° SSW visible
18 Feb 5.4 19:02:37 10° S 19:06:17 27° ESE 19:07:18 25° E visible
18 Feb 6.5 20:44:44 10° WSW 20:47:19 27° W 20:47:19 27° W visible
